Zurück zum Katalog

EXPLORER 7

AktivWissenschaftVLEO
NORAD 22·PAYLOAD·🇺🇸 United States

Gestartet Oct 13, 1959 von Cape Canaveral Space Force Station

Loading…

Nächste Überflüge (nächste 24 Stunden)

TLE

AktuellSource: Space-Track

Epoche: Sep 14, 2026, 13:38 UTC

1 00022U 59009A   26257.56874168  .00010847  00000-0  34177-3 0  9999
2 00022  50.2420  17.4906 0074094 126.2564 234.5273 15.30757225814035

Verfolge EXPLORER 7 in Echtzeit mit AllMySat

Download on the App Store